When you browse on this site, cookies collect data to enhance your experience and personalize the content and advertising you see.
Visit our Privacy Policy to learn more. By continuing to use the site, you agree to this use of cookies and data.
  • în România
  • Lista ţărilor
  • Pe 7 zile
  • Temperatura apei
  • Hartă satelitară
  • Meteo pe hartă
  • Widget-uri
  • user-avatar
    Intrare

    Meteo pe oră la Dubovka

    Astăzi, 18 Noiembrie, Duminică

    Timp Temperatura Precipitaţii Vânt Presiune Umiditate
    00:00 -2°C° 0 mm 5 m/s 748 mmHg 46%
    01:00 -2°C° 0 mm 5 m/s 747 mmHg 48%
    02:00 -2°C° 0 mm 5 m/s 746 mmHg 50%
    03:00 -4°C° 0 mm 5 m/s 745 mmHg 51%
    04:00 -4°C° 0 mm 5 m/s 745 mmHg 55%
    05:00 -3°C° 0 mm 4 m/s 744 mmHg 59%
    06:00 -3°C° 0 mm 4 m/s 744 mmHg 63%
    07:00 -3°C° 0 mm 4 m/s 744 mmHg 67%
    08:00 -3°C° 0 mm 4 m/s 743 mmHg 71%
    09:00 -3°C° 0 mm 4 m/s 743 mmHg 74%
    10:00 -3°C° 0.1 mm 4 m/s 743 mmHg 77%
    11:00 -2°C° 0.1 mm 3 m/s 743 mmHg 79%
    12:00 -2°C° 0.1 mm 3 m/s 743 mmHg 81%
    13:00 -1°C° 0.1 mm 3 m/s 743 mmHg 82%
    14:00 -1°C° 0.1 mm 3 m/s 743 mmHg 83%
    15:00 -1°C° 0.1 mm 2 m/s 743 mmHg 84%
    16:00 -1°C° 0.1 mm 2 m/s 743 mmHg 85%
    17:00 -2°C° 0.1 mm 2 m/s 744 mmHg 87%
    18:00 -2°C° 0.1 mm 2 m/s 744 mmHg 89%
    19:00 -2°C° 0 mm 2 m/s 744 mmHg 90%
    20:00 -2°C° 0 mm 2 m/s 744 mmHg 91%
    21:00 0°C° 0 mm 1 m/s 744 mmHg 92%
    22:00 0°C° 0 mm 1 m/s 745 mmHg 93%
    23:00 0°C° 0 mm 1 m/s 745 mmHg 94%

    Mâine, 19 Noiembrie, Luni

    Timp Temperatura Precipitaţii Vânt Presiune Umiditate
    00:00 0°C° 0 mm 1 m/s 745 mmHg 94%
    01:00 0°C° 0 mm 1 m/s 746 mmHg 95%
    02:00 0°C° 0 mm 1 m/s 746 mmHg 95%
    03:00 0°C° 0 mm 1 m/s 746 mmHg 95%
    04:00 0°C° 0 mm 1 m/s 746 mmHg 95%
    05:00 0°C° 0 mm 1 m/s 747 mmHg 95%
    06:00 0°C° 0 mm 1 m/s 747 mmHg 95%
    07:00 0°C° 0 mm 1 m/s 747 mmHg 95%
    08:00 0°C° 0 mm 1 m/s 747 mmHg 94%
    09:00 0°C° 0 mm 1 m/s 748 mmHg 94%
    10:00 +1°C° 0 mm 1 m/s 748 mmHg 92%
    11:00 +2°C° 0 mm 1 m/s 748 mmHg 90%
    12:00 +2°C° 0 mm 1 m/s 749 mmHg 88%
    13:00 +2°C° 0 mm 1 m/s 749 mmHg 89%
    14:00 +2°C° 0 mm 1 m/s 749 mmHg 90%
    15:00 +2°C° 0 mm 1 m/s 749 mmHg 91%
    16:00 -1°C° 0 mm 2 m/s 749 mmHg 92%
    17:00 -1°C° 0 mm 2 m/s 749 mmHg 93%
    18:00 -1°C° 0 mm 2 m/s 749 mmHg 95%
    19:00 -1°C° 0 mm 2 m/s 749 mmHg 95%
    20:00 -1°C° 0 mm 2 m/s 750 mmHg 96%
    21:00 -1°C° 0 mm 2 m/s 750 mmHg 96%
    22:00 -1°C° 0 mm 2 m/s 750 mmHg 96%
    23:00 -1°C° 0 mm 2 m/s 750 mmHg 96%

    Poimâine, 20 Noiembrie, Marţi

    Timp Temperatura Precipitaţii Vânt Presiune Umiditate
    00:00 -1°C° 0 mm 2 m/s 750 mmHg 96%
    01:00 -1°C° 0 mm 2 m/s 750 mmHg 96%
    02:00 -2°C° 0 mm 2 m/s 750 mmHg 96%
    03:00 -2°C° 0 mm 3 m/s 750 mmHg 95%
    04:00 -2°C° 0 mm 3 m/s 750 mmHg 94%
    05:00 -2°C° 0 mm 3 m/s 749 mmHg 93%
    06:00 -2°C° 0 mm 3 m/s 749 mmHg 92%
    07:00 -2°C° 0 mm 3 m/s 749 mmHg 92%
    08:00 -2°C° 0 mm 3 m/s 749 mmHg 91%
    09:00 -2°C° 0 mm 3 m/s 749 mmHg 91%
    10:00 -2°C° 0 mm 3 m/s 749 mmHg 88%
    11:00 -1°C° 0 mm 3 m/s 749 mmHg 86%
    12:00 -1°C° 0 mm 3 m/s 749 mmHg 84%
    13:00 -1°C° 0 mm 2 m/s 749 mmHg 83%
    14:00 -1°C° 0 mm 2 m/s 748 mmHg 83%
    15:00 -1°C° 0 mm 2 m/s 748 mmHg 82%
    16:00 -2°C° 0 mm 2 m/s 748 mmHg 84%
    17:00 -2°C° 0 mm 2 m/s 748 mmHg 85%
    18:00 -2°C° 0 mm 2 m/s 748 mmHg 87%
    19:00 -2°C° 0 mm 2 m/s 748 mmHg 86%
    20:00 -2°C° 0 mm 2 m/s 748 mmHg 85%
    21:00 -2°C° 0 mm 2 m/s 748 mmHg 84%
    22:00 -3°C° 0 mm 2 m/s 747 mmHg 84%
    23:00 -3°C° 0 mm 2 m/s 747 mmHg 84%

    21 Noiembrie, Miercuri

    Timp Temperatura Precipitaţii Vânt Presiune Umiditate
    00:00 -3°C° 0 mm 2 m/s 747 mmHg 83%
    01:00 -3°C° 0 mm 2 m/s 747 mmHg 84%
    02:00 -3°C° 0 mm 2 m/s 747 mmHg 85%
    03:00 -4°C° 0 mm 2 m/s 747 mmHg 86%
    04:00 -4°C° 0 mm 2 m/s 747 mmHg 86%
    05:00 -4°C° 0 mm 2 m/s 747 mmHg 86%
    06:00 -5°C° 0 mm 3 m/s 747 mmHg 87%
    07:00 -5°C° 0 mm 3 m/s 747 mmHg 86%
    08:00 -5°C° 0 mm 3 m/s 747 mmHg 86%
    09:00 -5°C° 0 mm 3 m/s 747 mmHg 86%
    10:00 -4°C° 0 mm 3 m/s 747 mmHg 82%
    11:00 -4°C° 0 mm 4 m/s 747 mmHg 79%
    12:00 -3°C° 0 mm 4 m/s 747 mmHg 76%
    13:00 -3°C° 0 mm 4 m/s 747 mmHg 77%
    14:00 -3°C° 0 mm 4 m/s 747 mmHg 78%
    15:00 -3°C° 0 mm 4 m/s 746 mmHg 78%
    16:00 -4°C° 0 mm 4 m/s 746 mmHg 80%
    17:00 -4°C° 0 mm 4 m/s 747 mmHg 81%
    18:00 -4°C° 0 mm 4 m/s 747 mmHg 82%
    19:00 -4°C° 0 mm 4 m/s 747 mmHg 83%
    20:00 -4°C° 0 mm 3 m/s 747 mmHg 83%
    21:00 -2°C° 0 mm 3 m/s 747 mmHg 83%
    22:00 -4°C° 0 mm 3 m/s 747 mmHg 83%
    23:00 -4°C° 0 mm 3 m/s 747 mmHg 83%

    22 Noiembrie, Joi

    Timp Temperatura Precipitaţii Vânt Presiune Umiditate
    00:00 -4°C° 0 mm 3 m/s 747 mmHg 83%
    01:00 -4°C° 0 mm 3 m/s 746 mmHg 85%
    02:00 -4°C° 0 mm 3 m/s 746 mmHg 86%
    03:00 -5°C° 0 mm 3 m/s 746 mmHg 87%
    04:00 -5°C° 0 mm 3 m/s 746 mmHg 87%
    05:00 -5°C° 0 mm 3 m/s 746 mmHg 88%
    06:00 -5°C° 0 mm 3 m/s 745 mmHg 88%
    07:00 -5°C° 0 mm 4 m/s 745 mmHg 86%
    08:00 -5°C° 0 mm 4 m/s 745 mmHg 84%
    09:00 -6°C° 0 mm 5 m/s 745 mmHg 83%
    10:00 -6°C° 0 mm 5 m/s 745 mmHg 80%
    11:00 -5°C° 0 mm 5 m/s 744 mmHg 77%
    12:00 -4°C° 0 mm 6 m/s 744 mmHg 74%
    13:00 -4°C° 0 mm 6 m/s 744 mmHg 75%
    14:00 -5°C° 0 mm 6 m/s 744 mmHg 76%
    15:00 -5°C° 0 mm 6 m/s 744 mmHg 77%
    16:00 -5°C° 0 mm 6 m/s 744 mmHg 78%
    17:00 -5°C° 0 mm 5 m/s 744 mmHg 78%
    18:00 -5°C° 0 mm 5 m/s 744 mmHg 79%
    19:00 -5°C° 0 mm 5 m/s 744 mmHg 80%
    20:00 -5°C° 0 mm 5 m/s 745 mmHg 82%
    21:00 -4°C° 0 mm 4 m/s 745 mmHg 83%
    22:00 -4°C° 0 mm 4 m/s 745 mmHg 84%
    23:00 -4°C° 0 mm 4 m/s 746 mmHg 86%

    23 Noiembrie, Vineri

    Timp Temperatura Precipitaţii Vânt Presiune Umiditate
    00:00 -4°C° 0 mm 3 m/s 746 mmHg 87%
    01:00 -4°C° 0 mm 3 m/s 746 mmHg 89%
    02:00 -5°C° 0 mm 3 m/s 747 mmHg 91%
    03:00 -5°C° 0 mm 3 m/s 747 mmHg 94%
    04:00 -5°C° 0 mm 3 m/s 747 mmHg 94%
    05:00 -5°C° 0 mm 3 m/s 747 mmHg 95%
    06:00 -4°C° 0 mm 2 m/s 748 mmHg 95%
    07:00 -4°C° 0 mm 2 m/s 748 mmHg 95%
    08:00 -4°C° 0 mm 2 m/s 748 mmHg 95%
    09:00 -4°C° 0 mm 2 m/s 748 mmHg 95%
    10:00 -3°C° 0 mm 2 m/s 748 mmHg 92%
    11:00 -4°C° 0 mm 3 m/s 748 mmHg 89%
    12:00 -2°C° 0 mm 3 m/s 749 mmHg 86%
    13:00 -2°C° 0 mm 3 m/s 748 mmHg 85%
    14:00 -2°C° 0 mm 3 m/s 748 mmHg 85%
    15:00 -2°C° 0 mm 3 m/s 748 mmHg 85%
    16:00 -3°C° 0 mm 4 m/s 748 mmHg 87%
    17:00 -4°C° 0 mm 4 m/s 747 mmHg 89%
    18:00 -4°C° 0 mm 4 m/s 747 mmHg 91%
    19:00 -4°C° 0 mm 4 m/s 747 mmHg 91%
    20:00 -5°C° 0 mm 5 m/s 746 mmHg 91%
    21:00 -5°C° 0 mm 5 m/s 746 mmHg 91%
    22:00 -5°C° 0 mm 5 m/s 745 mmHg 91%
    23:00 -6°C° 0 mm 6 m/s 745 mmHg 91%
    Arată mai mult